Simultaneous Nadir Overpasses (SNOs) Predictions

Prediction of SNOs between GOES-17 and TERRA Satellite Orbit:

Table of predicted SNOs for the next 14.0 days since TLE Epoch: 1/15/2022
Index Date Time (GOES-17) GOES-17 Lat,Lon TERRA Lat,Lon Distance(km) Time Diff (sec)
1 01/16/2022 19:24:17 -0.01,-137.25 -0.33,-135.58 189.23 80
2 01/17/2022 07:48:21 0.00,-137.25 -0.75,-140.78 400.78 80
3 01/19/2022 07:36:08 -0.00,-137.30 -0.10,-137.83 59.78 80
4 01/21/2022 07:21:14 -0.01,-137.34 0.51,-134.87 281.08 80
5 01/21/2022 19:45:09 0.02,-137.36 0.59,-140.03 303.36 80
6 01/23/2022 19:32:55 0.02,-137.40 -0.02,-137.07 36.87 80
7 01/25/2022 19:20:42 0.01,-137.43 -0.69,-134.13 375.88 80
8 01/26/2022 07:42:05 -0.01,-137.43 -0.38,-139.33 214.64 80
9 01/28/2022 07:27:11 0.01,-137.45 0.23,-136.37 122.76 80
10 01/28/2022 19:48:26 -0.02,-137.46 0.86,-141.53 463.03 80
